Location: ??????
(55.8143°N, 38.2555°E)
Time: 06:03:22
(UTC+00:00)

Cosmos 1315 Rocket - Pass Details

Date: 23 May 2024
Orbit: 515 x 542 km, 81.2° (Epoch: 23 June)

Event Time Altitude Azimuth Distance (km) Brightness Sun altitude
Exits shadow 00:04:42 - 223° (SW) 1,924 4.9 -6.3°
Reaches altitude 10° 00:05:07 10° 225° (SW) 1,768 4.7 -6.3°
Maximum altitude 00:08:43 36° 293° (WNW) 863 3.7 -6.0°
Drops below altitude 10° 00:12:23 10° 1° (N) 1,797 6.3 -5.6°
Sets 00:14:42 0° 11° (N) 2,698 7.6 -5.4°
